When you browse on this site, cookies collect data to enhance your experience and personalize the content and advertising you see.
Visit our Privacy Policy to learn more. By continuing to use the site, you agree to this use of cookies and data.
  • In Hungary
  • List of Countries
  • For 7 days
  • Water Temperature
  • Satellite Maps
  • Weather Map
  • News
  • Weather Widgets
  • user-avatar
    Login

    Hourly Weather Polana

    Today, 19 December, Wednesday

    Time Temperature Precipitation Wind Pressure Humidity
    00:00 -2°C° 0 mm 3 mps 754 mmHg 90%
    01:00 -2°C° 0 mm 3 mps 754 mmHg 90%
    02:00 -2°C° 0 mm 3 mps 754 mmHg 89%
    03:00 -2°C° 0 mm 3 mps 754 mmHg 89%
    04:00 -2°C° 0 mm 3 mps 753 mmHg 89%
    05:00 -2°C° 0 mm 3 mps 753 mmHg 88%
    06:00 -2°C° 0 mm 3 mps 753 mmHg 88%
    07:00 -2°C° 0 mm 3 mps 753 mmHg 88%
    08:00 -3°C° 0 mm 4 mps 753 mmHg 85%
    09:00 -2°C° 0 mm 4 mps 752 mmHg 81%
    10:00 -1°C° 0 mm 4 mps 752 mmHg 78%
    11:00 -1°C° 0 mm 4 mps 752 mmHg 76%
    12:00 0°C° 0 mm 5 mps 752 mmHg 74%
    13:00 0°C° 0 mm 5 mps 751 mmHg 72%
    14:00 0°C° 0 mm 5 mps 751 mmHg 73%
    15:00 -1°C° 0 mm 4 mps 751 mmHg 74%
    16:00 -1°C° 0 mm 4 mps 750 mmHg 75%
    17:00 -2°C° 0 mm 4 mps 750 mmHg 74%
    18:00 -2°C° 0 mm 4 mps 750 mmHg 74%
    19:00 -2°C° 0 mm 4 mps 750 mmHg 74%
    20:00 -2°C° 0 mm 4 mps 750 mmHg 74%
    21:00 -2°C° 0 mm 4 mps 750 mmHg 74%
    22:00 -2°C° 0 mm 4 mps 750 mmHg 73%
    23:00 -2°C° 0 mm 4 mps 750 mmHg 73%

    Tomorrow, 20 December, Thursday

    Time Temperature Precipitation Wind Pressure Humidity
    00:00 -1°C° 0 mm 3 mps 749 mmHg 72%
    01:00 -1°C° 0 mm 3 mps 749 mmHg 72%
    02:00 -1°C° 0 mm 3 mps 749 mmHg 72%
    03:00 -1°C° 0 mm 3 mps 749 mmHg 73%
    04:00 -1°C° 0 mm 3 mps 749 mmHg 73%
    05:00 -2°C° 0 mm 3 mps 749 mmHg 74%
    06:00 -2°C° 0 mm 3 mps 749 mmHg 75%
    07:00 -3°C° 0 mm 4 mps 749 mmHg 76%
    08:00 -3°C° 0 mm 4 mps 749 mmHg 75%
    09:00 -3°C° 0 mm 4 mps 749 mmHg 74%
    10:00 -3°C° 0 mm 4 mps 749 mmHg 74%
    11:00 -2°C° 0.1 mm 4 mps 749 mmHg 74%
    12:00 -2°C° 0.1 mm 4 mps 749 mmHg 75%
    13:00 -1°C° 0.1 mm 4 mps 749 mmHg 75%
    14:00 -1°C° 0.1 mm 4 mps 749 mmHg 78%
    15:00 0°C° 0.1 mm 3 mps 749 mmHg 81%
    16:00 0°C° 0.1 mm 3 mps 749 mmHg 83%
    17:00 0°C° 0 mm 3 mps 749 mmHg 84%
    18:00 -1°C° 0 mm 4 mps 749 mmHg 85%
    19:00 -1°C° 0 mm 4 mps 749 mmHg 86%
    20:00 -1°C° 0 mm 4 mps 749 mmHg 86%
    21:00 -1°C° 0 mm 4 mps 749 mmHg 87%
    22:00 0°C° 0 mm 4 mps 749 mmHg 88%
    23:00 0°C° 0 mm 4 mps 749 mmHg 88%

    Day after tomorrow, 21 December, Friday

    Time Temperature Precipitation Wind Pressure Humidity
    00:00 0°C° 0 mm 4 mps 749 mmHg 88%
    01:00 0°C° 0 mm 4 mps 749 mmHg 88%
    02:00 0°C° 0 mm 4 mps 749 mmHg 88%
    03:00 0°C° 0 mm 4 mps 749 mmHg 88%
    04:00 0°C° 0 mm 4 mps 748 mmHg 88%
    05:00 0°C° 0 mm 4 mps 748 mmHg 87%
    06:00 0°C° 0 mm 4 mps 748 mmHg 87%
    07:00 0°C° 0 mm 4 mps 748 mmHg 87%
    08:00 0°C° 0 mm 5 mps 747 mmHg 86%
    09:00 +1°C° 0 mm 5 mps 747 mmHg 84%
    10:00 +1°C° 0 mm 5 mps 747 mmHg 83%
    11:00 +1°C° 0.1 mm 5 mps 746 mmHg 82%
    12:00 +2°C° 0.1 mm 5 mps 745 mmHg 81%
    13:00 +2°C° 0.1 mm 5 mps 745 mmHg 80%
    14:00 +2°C° 0.5 mm 5 mps 744 mmHg 81%
    15:00 +2°C° 0.5 mm 6 mps 743 mmHg 82%
    16:00 +1°C° 0.5 mm 6 mps 742 mmHg 82%
    17:00 +2°C° 1 mm 7 mps 742 mmHg 82%
    18:00 +2°C° 1 mm 7 mps 741 mmHg 82%
    19:00 +1°C° 1 mm 8 mps 740 mmHg 82%
    20:00 +2°C° 0.4 mm 8 mps 740 mmHg 83%
    21:00 +4°C° 0.4 mm 7 mps 739 mmHg 85%
    22:00 +5°C° 0.4 mm 7 mps 739 mmHg 86%
    23:00 +5°C° 0.1 mm 7 mps 739 mmHg 85%

    22 December, Saturday

    Time Temperature Precipitation Wind Pressure Humidity
    00:00 +5°C° 0.1 mm 6 mps 740 mmHg 85%
    01:00 +4°C° 0.1 mm 6 mps 740 mmHg 85%
    02:00 +4°C° 0 mm 6 mps 740 mmHg 84%
    03:00 +4°C° 0 mm 6 mps 740 mmHg 83%
    04:00 +3°C° 0 mm 6 mps 741 mmHg 83%
    05:00 +3°C° 0 mm 5 mps 740 mmHg 83%
    06:00 +3°C° 0 mm 5 mps 740 mmHg 83%
    07:00 +4°C° 0 mm 4 mps 740 mmHg 83%
    08:00 +5°C° 0.1 mm 4 mps 740 mmHg 85%
    09:00 +5°C° 0.1 mm 4 mps 740 mmHg 86%
    10:00 +5°C° 0.1 mm 5 mps 739 mmHg 87%
    11:00 +6°C° 0.2 mm 5 mps 739 mmHg 86%
    12:00 +5°C° 0.2 mm 6 mps 738 mmHg 85%
    13:00 +7°C° 0.2 mm 6 mps 737 mmHg 84%
    14:00 +6°C° 0.2 mm 7 mps 738 mmHg 83%
    15:00 +6°C° 0.2 mm 8 mps 738 mmHg 81%
    16:00 +6°C° 0.2 mm 10 mps 738 mmHg 80%
    17:00 +5°C° 0 mm 8 mps 739 mmHg 81%
    18:00 +5°C° 0 mm 7 mps 740 mmHg 82%
    19:00 +5°C° 0 mm 6 mps 741 mmHg 83%
    20:00 +4°C° 0 mm 6 mps 741 mmHg 82%
    21:00 +4°C° 0 mm 6 mps 741 mmHg 81%
    22:00 +4°C° 0 mm 6 mps 742 mmHg 81%
    23:00 +4°C° 0.1 mm 7 mps 742 mmHg 80%

    23 December, Sunday

    Time Temperature Precipitation Wind Pressure Humidity
    00:00 +4°C° 0.1 mm 7 mps 742 mmHg 80%
    01:00 +4°C° 0.1 mm 7 mps 742 mmHg 80%
    02:00 +4°C° 0.3 mm 7 mps 743 mmHg 80%
    03:00 +4°C° 0.3 mm 7 mps 743 mmHg 81%
    04:00 +4°C° 0.3 mm 7 mps 744 mmHg 81%
    05:00 +3°C° 0.1 mm 6 mps 745 mmHg 82%
    06:00 +3°C° 0.1 mm 6 mps 745 mmHg 83%
    07:00 +3°C° 0.1 mm 6 mps 746 mmHg 84%
    08:00 +3°C° 0 mm 6 mps 746 mmHg 82%
    09:00 +3°C° 0 mm 6 mps 746 mmHg 81%
    10:00 +4°C° 0 mm 6 mps 747 mmHg 80%
    11:00 +4°C° 0.1 mm 6 mps 747 mmHg 78%
    12:00 +4°C° 0.1 mm 6 mps 747 mmHg 76%
    13:00 +4°C° 0.1 mm 6 mps 747 mmHg 75%
    14:00 +4°C° 0.1 mm 6 mps 747 mmHg 77%
    15:00 +5°C° 0.1 mm 5 mps 747 mmHg 79%
    16:00 +3°C° 0.1 mm 5 mps 747 mmHg 81%
    17:00 +3°C° 0.1 mm 5 mps 747 mmHg 81%
    18:00 +3°C° 0.1 mm 5 mps 747 mmHg 81%
    19:00 +3°C° 0.1 mm 6 mps 748 mmHg 81%
    20:00 +3°C° 0.1 mm 6 mps 748 mmHg 81%
    21:00 +3°C° 0.1 mm 6 mps 748 mmHg 81%
    22:00 +3°C° 0.1 mm 7 mps 748 mmHg 81%
    23:00 +3°C° 0.1 mm 6 mps 749 mmHg 82%

    24 December, Monday

    Time Temperature Precipitation Wind Pressure Humidity
    00:00 +3°C° 0.1 mm 6 mps 749 mmHg 83%
    01:00 +2°C° 0.1 mm 6 mps 749 mmHg 84%
    02:00 +2°C° 0.2 mm 5 mps 750 mmHg 85%
    03:00 +2°C° 0.2 mm 5 mps 750 mmHg 85%
    04:00 +3°C° 0.2 mm 4 mps 750 mmHg 86%
    05:00 +2°C° 0.1 mm 3 mps 751 mmHg 88%
    06:00 +2°C° 0.1 mm 3 mps 751 mmHg 89%
    07:00 +3°C° 0.1 mm 2 mps 752 mmHg 90%
    08:00 +3°C° 0.2 mm 2 mps 752 mmHg 89%
    09:00 +3°C° 0.2 mm 2 mps 752 mmHg 88%
    10:00 +4°C° 0.2 mm 2 mps 753 mmHg 86%
    11:00 +3°C° 0.3 mm 3 mps 753 mmHg 85%
    12:00 +3°C° 0.3 mm 3 mps 753 mmHg 83%
    13:00 +4°C° 0.3 mm 4 mps 753 mmHg 82%
    14:00 +3°C° 0.2 mm 3 mps 753 mmHg 83%
    15:00 +3°C° 0.2 mm 3 mps 754 mmHg 85%
    16:00 +3°C° 0.2 mm 3 mps 754 mmHg 87%
    17:00 +3°C° 0.1 mm 3 mps 754 mmHg 88%
    18:00 +3°C° 0.1 mm 2 mps 754 mmHg 89%
    19:00 +3°C° 0.1 mm 2 mps 754 mmHg 90%
    20:00 +2°C° 0.1 mm 3 mps 754 mmHg 90%
    21:00 +2°C° 0.1 mm 3 mps 755 mmHg 90%
    22:00 +2°C° 0.1 mm 3 mps 755 mmHg 89%
    23:00 +2°C° 0 mm 3 mps 755 mmHg 90%
    Show more